| time (UTC) | temp F | wind direction | speed MPH | gust MPH | rain 1hr in | rain 24hr in | rain mn in | humidity % | barometer mb |
| 20260903234538 | 64 | 258 | 4.0 | 12.0 | 0.00 | 0.11 | 0.06 | 69 | 1009.2 |
| 20260903233025 | 68 | 289 | 5.0 | 10.0 | 0.00 | 0.11 | 0.06 | 57 | 1009.1 |
| 20260903231537 | 68 | 226 | 4.0 | 10.0 | 0.00 | 0.11 | 0.06 | 54 | 1009.0 |
| 20260903230027 | 68 | 201 | 4.0 | 9.0 | 0.00 | 0.11 | 0.06 | 53 | 1008.9 |
| 20260903224506 | 68 | 293 | 3.0 | 8.0 | 0.00 | 0.16 | 0.06 | 52 | 1009.0 |
| 20260903223128 | 67 | 306 | 2.0 | 5.0 | 0.00 | 0.16 | 0.06 | 55 | 1009.0 |
| 20260903221536 | 67 | 235 | 4.0 | 11.0 | 0.00 | 0.16 | 0.06 | 55 | 1009.1 |
| 20260903220019 | 66 | 154 | 1.0 | 9.0 | 0.00 | 0.16 | 0.06 | 56 | 1009.2 |
| 20260903214601 | 66 | 281 | 3.0 | 13.0 | 0.00 | 0.19 | 0.06 | 56 | 1009.0 |
| 20260903213048 | 66 | 201 | 4.0 | 11.0 | 0.00 | 0.19 | 0.06 | 58 | 1009.2 |
| 20260903211527 | 65 | 214 | 4.0 | 9.0 | 0.00 | 0.19 | 0.06 | 60 | 1009.2 |
| 20260903210010 | 65 | 201 | 6.0 | 10.0 | 0.00 | 0.19 | 0.06 | 60 | 1009.1 |
| 20260903204553 | 64 | 199 | 3.0 | 18.0 | 0.00 | 0.22 | 0.06 | 63 | 1009.2 |
| 20260903203016 | 64 | 222 | 7.0 | 15.0 | 0.00 | 0.22 | 0.06 | 65 | 1009.1 |
| 20260903201523 | 64 | 227 | 3.0 | 9.0 | 0.00 | 0.22 | 0.06 | 66 | 1009.1 |
| 20260903200100 | 62 | 209 | 5.0 | 11.0 | 0.00 | 0.22 | 0.06 | 67 | 1009.2 |
| 20260903200004 | 62 | 207 | 4.0 | 11.0 | 0.00 | 0.22 | 0.06 | 67 | 1009.2 |
| 20260903194547 | 62 | 206 | 3.0 | 9.0 | 0.00 | 0.22 | 0.06 | 69 | 1009.2 |
| 20260903193024 | 62 | 193 | 1.0 | 6.0 | 0.00 | 0.22 | 0.06 | 71 | 1009.1 |
| 20260903191535 | 61 | 209 | 5.0 | 9.0 | 0.00 | 0.22 | 0.06 | 71 | 1009.2 |
| 20260903190049 | 61 | 213 | 3.0 | 9.0 | 0.00 | 0.22 | 0.06 | 71 | 1009.2 |
| 20260903184528 | 61 | 183 | 5.0 | 10.0 | 0.00 | 0.23 | 0.06 | 70 | 1009.2 |
| 20260903183010 | 61 | 234 | 4.0 | 8.0 | 0.00 | 0.23 | 0.06 | 73 | 1009.2 |
| 20260903181522 | 60 | 164 | 5.0 | 10.0 | 0.00 | 0.23 | 0.06 | 76 | 1009.0 |
| 20260903180059 | 60 | 197 | 2.0 | 5.0 | 0.00 | 0.23 | 0.06 | 79 | 1009.0 |
| 20260903174542 | 59 | 218 | 4.0 | 9.0 | 0.00 | 0.23 | 0.06 | 81 | 1009.0 |
| 20260903173050 | 58 | 189 | 3.0 | 7.0 | 0.00 | 0.23 | 0.06 | 84 | 1008.9 |
| 20260903171512 | 58 | 170 | 2.0 | 7.0 | 0.00 | 0.23 | 0.06 | 84 | 1008.8 |
| 20260903170020 | 58 | 168 | 1.0 | 5.0 | 0.00 | 0.23 | 0.06 | 85 | 1008.7 |
| 20260903164601 | 57 | 168 | 2.0 | 8.0 | 0.00 | 0.23 | 0.06 | 86 | 1008.7 |
| 20260903164503 | 57 | 185 | 1.0 | 8.0 | 0.00 | 0.23 | 0.06 | 87 | 1008.7 |
| 20260903163044 | 56 | 175 | 2.0 | 7.0 | 0.01 | 0.23 | 0.06 | 87 | 1008.8 |
| 20260903161556 | 56 | 179 | 1.0 | 8.0 | 0.01 | 0.23 | 0.06 | 87 | 1008.8 |
| 20260903160100 | 56 | 178 | 2.0 | 6.0 | 0.01 | 0.23 | 0.06 | 88 | 1008.7 |
| 20260903160002 | 56 | 174 | 2.0 | 6.0 | 0.01 | 0.23 | 0.06 | 89 | 1008.7 |
| 20260903154556 | 55 | 164 | 0.0 | 3.0 | 0.01 | 0.23 | 0.06 | 91 | 1008.7 |
| 20260903153012 | 55 | 174 | 2.0 | 6.0 | 0.00 | 0.22 | 0.05 | 90 | 1008.9 |
| 20260903151559 | 55 | 153 | 1.0 | 6.0 | 0.00 | 0.22 | 0.05 | 90 | 1008.8 |
| 20260903150015 | 55 | 187 | 0.0 | 3.0 | 0.00 | 0.22 | 0.05 | 92 | 1008.6 |
| 20260903144535 | 55 | 191 | 0.0 | 3.0 | 0.00 | 0.22 | 0.05 | 92 | 1008.5 |
| 20260903143040 | 54 | 193 | 0.0 | 3.0 | 0.01 | 0.22 | 0.05 | 92 | 1008.4 |
| 20260903141522 | 54 | 195 | 1.0 | 3.0 | 0.01 | 0.22 | 0.05 | 91 | 1008.3 |
| 20260903140036 | 54 | 178 | 0.0 | 5.0 | 0.01 | 0.22 | 0.05 | 91 | 1008.2 |
| 20260903134513 | 54 | 185 | 1.0 | 4.0 | 0.01 | 0.22 | 0.05 | 91 | 1008.1 |
| 20260903133033 | 54 | 165 | 2.0 | 6.0 | 0.01 | 0.21 | 0.04 | 91 | 1008.1 |
| 20260903131601 | 54 | 173 | 0.0 | 5.0 | 0.02 | 0.21 | 0.04 | 91 | 1008.0 |
| 20260903130006 | 54 | 169 | 2.0 | 5.0 | 0.03 | 0.21 | 0.04 | 91 | 1007.9 |
| 20260903124552 | 54 | 179 | 0.0 | 3.0 | 0.03 | 0.21 | 0.04 | 90 | 1007.9 |
| 20260903123043 | 55 | 179 | 1.0 | 4.0 | 0.02 | 0.20 | 0.03 | 88 | 1007.9 |
| 20260903121610 | 55 | 181 | 1.0 | 4.0 | 0.01 | 0.19 | 0.02 | 87 | 1007.9 |
| 20260903120034 | 55 | 173 | 1.0 | 4.0 | 0.00 | 0.18 | 0.01 | 84 | 1007.8 |
| 20260903114518 | 55 | 172 | 0.0 | 0.0 | 0.00 | 0.18 | 0.01 | 84 | 1007.7 |
| 20260903113006 | 56 | 172 | 0.0 | 2.0 | 0.00 | 0.18 | 0.01 | 83 | 1007.6 |
| 20260903111548 | 56 | 172 | 0.0 | 1.0 | 0.00 | 0.18 | 0.01 | 82 | 1007.5 |
| 20260903110008 | 56 | 172 | 0.0 | 3.0 | 0.00 | 0.18 | 0.01 | 82 | 1007.3 |
| 20260903104542 | 55 | 163 | 2.0 | 6.0 | 0.00 | 0.18 | 0.01 | 84 | 1007.4 |
| 20260903103015 | 55 | 158 | 1.0 | 5.0 | 0.00 | 0.18 | 0.01 | 86 | 1007.4 |
| 20260903101527 | 55 | 158 | 0.0 | 2.0 | 0.00 | 0.18 | 0.01 | 85 | 1007.3 |
| 20260903100100 | 55 | 158 | 0.0 | 5.0 | 0.00 | 0.18 | 0.01 | 84 | 1007.3 |
| 20260903100001 | 55 | 158 | 0.0 | 5.0 | 0.00 | 0.18 | 0.01 | 84 | 1007.3 |
| 20260903094535 | 55 | 149 | 0.0 | 2.0 | 0.01 | 0.18 | 0.01 | 87 | 1007.4 |
| 20260903093102 | 55 | 149 | 1.0 | 3.0 | 0.01 | 0.18 | 0.01 | 87 | 1007.3 |
| 20260903091511 | 55 | 149 | 0.0 | 2.0 | 0.01 | 0.18 | 0.01 | 87 | 1007.3 |
| 20260903090100 | 55 | 149 | 0.0 | 2.0 | 0.01 | 0.18 | 0.01 | 86 | 1007.3 |
| 20260903084516 | 56 | 149 | 0.0 | 1.0 | 0.00 | 0.17 | 0.00 | 85 | 1007.3 |
| 20260903083024 | 56 | 149 | 0.0 | 5.0 | 0.00 | 0.17 | 0.00 | 84 | 1007.3 |
| 20260903081537 | 56 | 174 | 0.0 | 4.0 | 0.00 | 0.17 | 0.00 | 83 | 1007.1 |
| 20260903080049 | 56 | 174 | 2.0 | 5.0 | 0.00 | 0.17 | 0.00 | 82 | 1007.1 |
| 20260903074539 | 57 | 175 | 0.0 | 4.0 | 0.00 | 0.17 | 0.00 | 82 | 1007.1 |
| 20260903073024 | 57 | 169 | 2.0 | 5.0 | 0.00 | 0.17 | 0.00 | 82 | 1007.0 |
| 20260903071509 | 56 | 174 | 1.0 | 4.0 | 0.00 | 0.17 | 0.00 | 83 | 1007.0 |
| 20260903070007 | 56 | 177 | 0.0 | 4.0 | 0.00 | 0.17 | 0.00 | 83 | 1006.9 |
| 20260903064550 | 57 | 177 | 1.0 | 5.0 | 0.00 | 0.17 | 0.17 | 83 | 1006.9 |
| 20260903063005 | 57 | 170 | 2.0 | 6.0 | 0.00 | 0.17 | 0.17 | 83 | 1006.9 |
| 20260903061559 | 56 | 172 | 1.0 | 5.0 | 0.00 | 0.17 | 0.17 | 84 | 1006.9 |
| 20260903060017 | 56 | 179 | 2.0 | 4.0 | 0.00 | 0.17 | 0.17 | 85 | 1007.0 |
| 20260903054535 | 56 | 174 | 1.0 | 4.0 | 0.00 | 0.17 | 0.17 | 87 | 1006.9 |
| 20260903053058 | 55 | 174 | 1.0 | 4.0 | 0.00 | 0.17 | 0.17 | 88 | 1007.0 |
| 20260903051508 | 55 | 173 | 0.0 | 3.0 | 0.00 | 0.17 | 0.17 | 89 | 1007.0 |
| 20260903050056 | 56 | 172 | 0.0 | 2.0 | 0.00 | 0.17 | 0.17 | 89 | 1006.9 |
| 20260903044542 | 56 | 170 | 1.0 | 5.0 | 0.00 | 0.17 | 0.17 | 90 | 1006.9 |
| 20260903043012 | 56 | 179 | 0.0 | 2.0 | 0.00 | 0.17 | 0.17 | 90 | 1006.8 |
| 20260903041558 | 57 | 179 | 0.0 | 3.0 | 0.00 | 0.17 | 0.17 | 90 | 1006.7 |
| 20260903040023 | 58 | 181 | 0.0 | 3.0 | 0.00 | 0.17 | 0.17 | 88 | 1006.6 |
| 20260903034526 | 58 | 181 | 1.0 | 5.0 | 0.00 | 0.17 | 0.17 | 88 | 1006.3 |
| 20260903033046 | 59 | 205 | 2.0 | 6.0 | 0.00 | 0.17 | 0.17 | 86 | 1006.3 |
| 20260903031553 | 59 | 179 | 3.0 | 6.0 | 0.00 | 0.17 | 0.17 | 85 | 1006.2 |
| 20260903030021 | 59 | 172 | 2.0 | 7.0 | 0.00 | 0.17 | 0.17 | 83 | 1005.9 |
| 20260903024525 | 59 | 161 | 2.0 | 9.0 | 0.00 | 0.18 | 0.17 | 82 | 1005.6 |
| 20260903023052 | 60 | 198 | 5.0 | 12.0 | 0.00 | 0.18 | 0.17 | 83 | 1005.5 |
| 20260903021545 | 60 | 214 | 5.0 | 9.0 | 0.00 | 0.18 | 0.17 | 83 | 1005.3 |
| 20260903020053 | 60 | 185 | 5.0 | 10.0 | 0.00 | 0.18 | 0.17 | 81 | 1005.1 |
| 20260903014550 | 60 | 212 | 3.0 | 12.0 | 0.00 | 0.18 | 0.17 | 82 | 1005.2 |
| 20260903013100 | 61 | 206 | 4.0 | 9.0 | 0.00 | 0.18 | 0.17 | 83 | 1005.0 |
| 20260903011510 | 60 | 189 | 5.0 | 11.0 | 0.00 | 0.18 | 0.17 | 85 | 1004.8 |
| 20260903010003 | 60 | 220 | 5.0 | 10.0 | 0.05 | 0.18 | 0.17 | 89 | 1004.6 |
| 20260903004516 | 60 | 162 | 7.0 | 12.0 | 0.05 | 0.18 | 0.17 | 91 | 1004.5 |
| 20260903003029 | 59 | 211 | 4.0 | 11.0 | 0.05 | 0.18 | 0.17 | 92 | 1004.4 |
| 20260903001542 | 59 | 181 | 5.0 | 12.0 | 0.05 | 0.18 | 0.17 | 92 | 1004.5 |
| 20260903000040 | 60 | 224 | 2.0 | 4.0 | 0.00 | 0.13 | 0.12 | 93 | 1004.4 |